Date String (YYYY-MM-DD hh:mm:ss) UTC,Instrument flags,Ambient pressure (hPa),Sample flow (lpm),Bypass flow (lpm),Sample temperature (°C),Ambient temperature (°C),ASC tube jacket temperature (°C),LED temperature (°C),Box temperature (°C),Sample RH (%),Span deviation,Mass concentration (μg/m³),Mass concentration (μg/m³),Mass concentration (μg/m³)
DateTimeUTC,F1_M11,P_M11,Q1_M11,Q2_M11,T1_M11,T2_M11,T3_M11,T4_M11,T5_M11,U1_M11,ZSPAN_M11,X0_M11,X2_M11,X1_M11
2023-05-02 06:00:00,,0828.1,4.99,0.00,29.9,28.3,00.0,38.4,31.4,13.2,0000.0,0019.42,0006.93,0004.81
2023-05-02 06:01:00,,0828.1,5.01,0.00,29.9,28.2,00.0,38.4,31.4,13.1,0000.0,0019.58,0006.94,0004.78
2023-05-02 06:02:00,,0828.1,5.01,0.00,29.9,28.2,00.0,38.4,31.4,13.1,0000.0,0020.09,0006.89,0004.75
2023-05-02 06:03:00,,0828.1,5.01,0.00,29.9,28.2,00.0,38.4,31.4,13.1,0000.0,0020.02,0006.95,0004.74
2023-05-02 06:04:00,,0828.1,5.00,0.00,29.9,28.2,00.0,38.4,31.4,13.2,0000.0,0020.25,0006.93,0004.70
2023-05-02 06:05:00,,0828.1,5.00,0.00,29.9,28.2,00.0,38.4,31.4,13.0,0000.0,0019.13,0006.86,0004.67
2023-05-02 06:06:00,,0828.1,5.00,0.00,29.9,28.2,00.0,38.3,31.4,13.1,0000.0,0018.44,0006.78,0004.62
2023-05-02 06:07:00,,0828.0,5.00,0.00,29.9,28.2,00.0,38.3,31.3,13.1,0000.0,0018.05,0006.67,0004.58
2023-05-02 06:08:00,,0828.1,5.00,0.00,29.9,28.2,00.0,38.3,31.4,13.0,0000.0,0017.96,0006.57,0004.57
2023-05-02 06:09:00,,0828.0,4.99,0.00,29.9,28.2,00.0,38.3,31.4,13.0,0000.0,0018.10,0006.52,0004.56
2023-05-02 06:10:00,,0828.0,5.00,0.00,29.9,28.2,00.0,38.3,31.4,12.9,0000.0,0017.95,0006.50,0004.53
2023-05-02 06:11:00,,0828.1,5.00,0.00,29.9,28.2,00.0,38.3,31.4,12.9,0000.0,0018.29,0006.50,0004.52
2023-05-02 06:12:00,,0828.1,5.00,0.00,29.9,28.2,00.0,38.3,31.4,13.0,0000.0,0018.53,0006.45,0004.51
2023-05-02 06:13:00,,0828.1,5.01,0.00,29.9,28.2,00.0,38.3,31.4,13.0,0000.0,0018.06,0006.44,0004.49
2023-05-02 06:14:00,,0828.1,5.00,0.00,29.9,28.2,00.0,38.3,31.4,13.0,0000.0,0017.82,0006.36,0004.46
2023-05-02 06:15:00,,0828.1,5.01,0.00,29.9,28.2,00.0,38.3,31.4,12.8,0000.0,0017.67,0006.33,0004.44
2023-05-02 06:16:00,,0828.1,4.99,0.00,29.9,28.2,00.0,38.3,31.4,12.9,0000.0,0017.29,0006.32,0004.42
2023-05-02 06:17:00,,0828.1,4.99,0.00,29.9,28.2,00.0,38.3,31.4,13.0,0000.0,0017.13,0006.34,0004.42
2023-05-02 06:18:00,,0828.0,5.00,0.00,29.9,28.2,00.0,38.3,31.4,13.0,0000.0,0017.18,0006.30,0004.40
2023-05-02 06:19:00,,0828.1,5.00,0.00,29.9,28.2,00.0,38.3,31.3,13.0,0000.0,0017.25,0006.27,0004.37
2023-05-02 06:20:00,,0828.0,5.01,0.00,29.9,28.2,00.0,38.3,31.3,12.9,0000.0,0017.14,0006.32,0004.37
2023-05-02 06:21:00,,0828.1,5.01,0.00,29.8,28.2,00.0,38.3,31.3,13.0,0000.0,0017.39,0006.32,0004.36
2023-05-02 06:22:00,,0828.1,4.98,0.00,29.8,28.2,00.0,38.3,31.3,13.0,0000.0,0017.51,0006.29,0004.34
2023-05-02 06:23:00,,0828.1,4.99,0.00,29.8,28.2,00.0,38.3,31.3,13.0,0000.0,0017.72,0006.28,0004.32
2023-05-02 06:24:00,,0828.0,5.01,0.00,29.8,28.2,00.0,38.3,31.3,13.0,0000.0,0018.76,0006.25,0004.32
2023-05-02 06:25:00,,0828.1,5.00,0.00,29.8,28.2,00.0,38.3,31.3,13.1,0000.0,0020.05,0006.28,0004.31
2023-05-02 06:26:00,,0828.1,5.01,0.00,29.8,28.2,00.0,38.3,31.3,13.0,0000.0,0020.04,0006.25,0004.30
2023-05-02 06:27:00,,0828.0,4.99,0.00,29.8,28.2,00.0,38.3,31.3,13.0,0000.0,0021.60,0006.24,0004.30
2023-05-02 06:28:00,,0828.0,5.01,0.00,29.8,28.2,00.0,38.3,31.3,12.9,0000.0,0021.78,0006.20,0004.29
2023-05-02 06:29:00,,0828.1,5.00,0.00,29.8,28.2,00.0,38.3,31.3,12.9,0000.0,0021.57,0006.20,0004.30
2023-05-02 06:30:00,,0828.1,5.00,0.00,29.8,28.2,00.0,38.3,31.3,12.9,0000.0,0021.05,0006.23,0004.30
2023-05-02 06:31:00,,0828.1,4.99,0.00,29.8,28.2,00.0,38.3,31.3,12.9,0000.0,0020.01,0006.18,0004.30
2023-05-02 06:32:00,,0828.0,5.00,0.00,29.8,28.2,00.0,38.3,31.3,12.8,0000.0,0019.78,0006.17,0004.30
2023-05-02 06:33:00,,0828.1,5.00,0.00,29.8,28.2,00.0,38.3,31.3,12.8,0000.0,0018.88,0006.10,0004.32
2023-05-02 06:34:00,,0828.0,5.01,0.00,29.8,28.2,00.0,38.2,31.3,12.8,0000.0,0018.28,0006.10,0004.34
2023-05-02 06:35:00,,0828.1,5.01,0.00,29.8,28.1,00.0,38.2,31.3,12.8,0000.0,0017.06,0006.17,0004.35
2023-05-02 06:36:00,,0828.1,5.01,0.00,29.8,28.1,00.0,38.2,31.3,12.9,0000.0,0016.02,0006.12,0004.36
2023-05-02 06:37:00,,0828.1,5.00,0.00,29.8,28.1,00.0,38.2,31.3,12.8,0000.0,0015.97,0006.12,0004.37
2023-05-02 06:38:00,,0828.1,5.01,0.00,29.8,28.1,00.0,38.2,31.3,13.0,0000.0,0014.86,0006.18,0004.37
2023-05-02 06:39:00,,0828.0,4.99,0.00,29.8,28.1,00.0,38.2,31.3,13.0,0000.0,0014.22,0006.24,0004.38
2023-05-02 06:40:00,,0828.1,4.99,0.00,29.8,28.1,00.0,38.2,31.3,13.0,0000.0,0014.49,0006.28,0004.38
2023-05-02 06:41:00,,0828.1,5.01,0.00,29.8,28.1,00.0,38.2,31.2,12.9,0000.0,0014.62,0006.30,0004.39
2023-05-02 06:42:00,,0828.1,5.01,0.00,29.8,28.1,00.0,38.2,31.2,12.8,0000.0,0014.81,0006.30,0004.39
2023-05-02 06:43:00,,0828.2,5.00,0.00,29.8,28.1,00.0,38.2,31.2,13.0,0000.0,0014.63,0006.31,0004.39
2023-05-02 06:44:00,,0828.2,4.99,0.00,29.7,28.0,00.0,38.2,31.2,13.0,0000.0,0014.62,0006.34,0004.39
2023-05-02 06:45:00,,0828.1,5.00,0.00,29.7,28.0,00.0,38.2,31.2,13.0,0000.0,0015.08,0006.41,0004.40
2023-05-02 06:46:00,,0828.2,5.00,0.00,29.7,28.0,00.0,38.2,31.2,13.1,0000.0,0015.50,0006.44,0004.41
2023-05-02 06:47:00,,0828.2,5.00,0.00,29.7,28.0,00.0,38.2,31.2,13.0,0000.0,0016.22,0006.45,0004.43
2023-05-02 06:48:00,,0828.1,5.01,0.00,29.7,28.0,00.0,38.2,31.2,13.1,0000.0,0016.36,0006.50,0004.44
2023-05-02 06:49:00,,0828.2,4.99,0.00,29.7,28.0,00.0,38.2,31.1,13.1,0000.0,0016.20,0006.49,0004.45
2023-05-02 06:50:00,,0828.2,5.00,0.00,29.7,28.0,00.0,38.2,31.1,13.1,0000.0,0017.10,0006.49,0004.47
2023-05-02 06:51:00,,0828.2,4.99,0.00,29.7,28.0,00.0,38.1,31.1,13.2,0000.0,0017.10,0006.54,0004.50
2023-05-02 06:52:00,,0828.2,5.00,0.00,29.6,27.9,00.0,38.1,31.1,13.3,0000.0,0017.52,0006.59,0004.53
2023-05-02 06:53:00,,0828.2,5.00,0.00,29.6,27.9,00.0,38.1,31.1,13.3,0000.0,0018.17,0006.59,0004.56
2023-05-02 06:54:00,,0828.2,5.01,0.00,29.6,27.9,00.0,38.1,31.1,13.3,0000.0,0018.55,0006.57,0004.59
2023-05-02 06:55:00,,0828.2,5.01,0.00,29.6,27.9,00.0,38.1,31.1,13.3,0000.0,0018.93,0006.59,0004.62
2023-05-02 06:56:00,,0828.2,4.99,0.00,29.6,27.9,00.0,38.1,31.1,13.3,0000.0,0019.25,0006.60,0004.64
2023-05-02 06:57:00,,0828.2,4.99,0.00,29.6,27.9,00.0,38.1,31.1,13.3,0000.0,0018.68,0006.56,0004.66
2023-05-02 06:58:00,,0828.3,5.01,0.00,29.6,27.9,00.0,38.1,31.0,13.3,0000.0,0017.71,0006.56,0004.66
2023-05-02 06:59:00,,0828.3,4.99,0.00,29.6,27.9,00.0,38.1,31.1,13.3,0000.0,0017.45,0006.57,0004.68
